EXPRESS-AM44

Last updated on Tue Oct 08 2024 00:02:38 GMT+0000 (Coordinated Universal Time)

1 33595U 09007A 24281.32637022 -.00000077 00000+0 00000+0 0 9996 2 33595 1.8620 85.9097 0004019 108.2107 288.8727 1.00272149 46092
UTC large
Height (km)
Speed (km/s)
/
Latitude / Longitude
Inclination (degrees)
Orbital Period (minutes)
Azimuth
Elevation
Range (km)
Doppler Factor

Next 0 passes for location: London (51.5072 / 0.1276)

Sorry there are no passes over London.